JST529 YSSY-YMML

Flight info

Callsign JST529
Flight time 1h 2m
Altitude 38000
Route WOL H65 LEECE Q29 ML
Aircraft A320/M-SDE3FGHIRWY/LB1

Departure

Time 2026-05-05 10:37
Airport Sydney Kingsford Smith International Airport (YSSY)

Arrival

Time 2026-05-05 11:40
Airport Melbourne Airport (YMML)
Time Latitude Longitude Altitude Speed Heading
2026-05-05 09:52 -33.93562 151.17756 30 ft 0 kts 281°
2026-05-05 10:30 -33.93563 151.17763 30 ft 4 kts 281°
2026-05-05 10:31 -33.93567 151.17793 30 ft 2 kts 280°
2026-05-05 10:31 -33.93570 151.17816 30 ft 4 kts 244°
2026-05-05 10:31 -33.93554 151.17831 30 ft 3 kts 190°
2026-05-05 10:31 -33.93530 151.17836 30 ft 3 kts 190°
2026-05-05 10:32 -33.93527 151.17837 30 ft 0 kts 190°
2026-05-05 10:34 -33.93529 151.17836 30 ft 1 kts 190°
2026-05-05 10:34 -33.93544 151.17833 30 ft 5 kts 190°
2026-05-05 10:34 -33.93584 151.17825 30 ft 7 kts 189°
2026-05-05 10:34 -33.93643 151.17813 30 ft 10 kts 194°
2026-05-05 10:35 -33.93655 151.17737 30 ft 11 kts 282°
2026-05-05 10:35 -33.93640 151.17637 30 ft 12 kts 270°
2026-05-05 10:35 -33.93639 151.17552 29 ft 7 kts 277°
2026-05-05 10:35 -33.93642 151.17501 28 ft 2 kts 258°
2026-05-05 10:36 -33.93647 151.17474 27 ft 6 kts 258°
2026-05-05 10:36 -33.93662 151.17394 26 ft 13 kts 255°
2026-05-05 10:36 -33.93724 151.17362 26 ft 6 kts 165°
2026-05-05 10:36 -33.93739 151.17367 26 ft 14 kts 165°
2026-05-05 10:37 -33.94101 151.17462 27 ft 89 kts 168°
2026-05-05 10:37 -33.94917 151.17673 29 ft 145 kts 168°
2026-05-05 10:37 -33.95999 151.17948 366 ft 161 kts 169°
2026-05-05 10:37 -33.97124 151.18110 1009 ft 163 kts 183°
2026-05-05 10:38 -33.98271 151.18011 1606 ft 169 kts 186°
2026-05-05 10:38 -33.99526 151.17874 1914 ft 192 kts 185°
2026-05-05 10:38 -34.00935 151.17734 2238 ft 214 kts 185°
2026-05-05 10:38 -34.02497 151.17623 2584 ft 238 kts 178°
2026-05-05 10:39 -34.04211 151.18014 3047 ft 263 kts 166°
2026-05-05 10:39 -34.06065 151.18600 3548 ft 287 kts 165°
2026-05-05 10:39 -34.08043 151.19256 4286 ft 299 kts 165°
2026-05-05 10:39 -34.10063 151.19942 5169 ft 305 kts 165°
2026-05-05 10:40 -34.12119 151.20640 6032 ft 309 kts 165°
2026-05-05 10:40 -34.14237 151.21356 6860 ft 314 kts 165°
2026-05-05 10:40 -34.16354 151.22065 7632 ft 318 kts 166°
2026-05-05 10:40 -34.18554 151.22344 8343 ft 322 kts 185°
2026-05-05 10:41 -34.20716 151.21628 9029 ft 326 kts 207°
2026-05-05 10:41 -34.22530 151.19976 9707 ft 330 kts 227°
2026-05-05 10:41 -34.24044 151.17880 10387 ft 333 kts 229°
2026-05-05 10:41 -34.25561 151.15743 10927 ft 340 kts 229°
2026-05-05 10:42 -34.28610 151.11432 12479 ft 334 kts 229°
2026-05-05 10:42 -34.30125 151.09287 13080 ft 337 kts 229°
2026-05-05 10:42 -34.31657 151.07120 13634 ft 341 kts 229°
2026-05-05 10:43 -34.33202 151.04936 14167 ft 343 kts 229°
2026-05-05 10:43 -34.34767 151.02731 14674 ft 347 kts 229°
2026-05-05 10:43 -34.36364 151.00481 15166 ft 350 kts 229°
2026-05-05 10:43 -34.38068 150.98348 15560 ft 356 kts 222°
2026-05-05 10:44 -34.39936 150.96307 15789 ft 366 kts 222°
2026-05-05 10:44 -34.41845 150.94241 16179 ft 370 kts 221°
2026-05-05 10:44 -34.43777 150.92161 16595 ft 373 kts 221°
2026-05-05 10:44 -34.45722 150.90064 17004 ft 376 kts 221°
2026-05-05 10:45 -34.47707 150.87920 17403 ft 378 kts 221°
2026-05-05 10:45 -34.49677 150.85783 17785 ft 381 kts 222°
2026-05-05 10:45 -34.51656 150.83625 18162 ft 384 kts 222°
2026-05-05 10:45 -34.53646 150.81454 18517 ft 386 kts 222°
2026-05-05 10:46 -34.55613 150.79223 18858 ft 389 kts 227°
2026-05-05 10:46 -34.57289 150.76641 19199 ft 391 kts 234°
2026-05-05 10:46 -34.58350 150.74869 19427 ft 393 kts 234°
2026-05-05 10:46 -34.60512 150.71277 19863 ft 396 kts 233°
2026-05-05 10:47 -34.62146 150.68574 20182 ft 398 kts 233°
2026-05-05 10:47 -34.63789 150.65854 20496 ft 400 kts 233°
2026-05-05 10:47 -34.65438 150.63118 20800 ft 402 kts 234°
2026-05-05 10:47 -34.67092 150.60365 21090 ft 405 kts 234°
2026-05-05 10:48 -34.68754 150.57598 21375 ft 407 kts 234°
2026-05-05 10:48 -34.70429 150.54816 21647 ft 409 kts 233°
2026-05-05 10:48 -34.72114 150.52017 21916 ft 411 kts 233°
2026-05-05 10:48 -34.73803 150.49202 22173 ft 413 kts 234°
2026-05-05 10:49 -34.75493 150.46375 22427 ft 415 kts 234°
2026-05-05 10:49 -34.77194 150.43530 22681 ft 417 kts 234°
2026-05-05 10:49 -34.78904 150.40673 22932 ft 418 kts 234°
2026-05-05 10:49 -34.80617 150.37807 23165 ft 420 kts 234°
2026-05-05 10:50 -34.82340 150.34922 23393 ft 422 kts 234°
2026-05-05 10:50 -34.84071 150.32025 23611 ft 424 kts 234°
2026-05-05 10:50 -34.85241 150.30063 23758 ft 425 kts 234°
2026-05-05 10:50 -34.87543 150.26196 24036 ft 427 kts 234°
2026-05-05 10:51 -34.89289 150.23261 24237 ft 429 kts 234°
2026-05-05 10:51 -34.90986 150.20403 24424 ft 430 kts 234°
2026-05-05 10:51 -34.92742 150.17442 24609 ft 432 kts 234°
2026-05-05 10:51 -34.94524 150.14437 24778 ft 433 kts 234°
2026-05-05 10:52 -34.96293 150.11457 24936 ft 434 kts 234°
2026-05-05 10:52 -34.98066 150.08470 25091 ft 436 kts 234°
2026-05-05 10:52 -34.99845 150.05470 25240 ft 437 kts 234°
2026-05-05 10:52 -35.01625 150.02466 25376 ft 438 kts 234°
2026-05-05 10:53 -35.03412 149.99446 25513 ft 439 kts 234°
2026-05-05 10:53 -35.05196 149.96424 25640 ft 440 kts 234°
2026-05-05 10:53 -35.06988 149.93390 25767 ft 441 kts 234°
2026-05-05 10:53 -35.08784 149.90346 25894 ft 442 kts 234°
2026-05-05 10:54 -35.10579 149.87304 26021 ft 442 kts 234°
2026-05-05 10:54 -35.12377 149.84251 26145 ft 443 kts 234°
2026-05-05 10:54 -35.14173 149.81194 26269 ft 443 kts 234°
2026-05-05 10:54 -35.15972 149.78125 26394 ft 444 kts 234°
2026-05-05 10:55 -35.17770 149.75061 26520 ft 444 kts 234°
2026-05-05 10:55 -35.19571 149.71993 26644 ft 444 kts 234°
2026-05-05 10:55 -35.21368 149.68926 26770 ft 444 kts 234°
2026-05-05 10:55 -35.23168 149.65851 26896 ft 445 kts 234°
2026-05-05 10:56 -35.24971 149.62769 27021 ft 445 kts 234°
2026-05-05 10:56 -35.26799 149.59646 27147 ft 445 kts 234°
2026-05-05 10:56 -35.28601 149.56566 27272 ft 446 kts 234°
2026-05-05 10:56 -35.29796 149.54525 27355 ft 446 kts 234°
2026-05-05 10:57 -35.32211 149.50386 27522 ft 446 kts 234°
2026-05-05 10:57 -35.34010 149.47291 27647 ft 446 kts 234°
2026-05-05 10:57 -35.35807 149.44195 27774 ft 446 kts 234°
2026-05-05 10:57 -35.37604 149.41096 27898 ft 447 kts 234°
2026-05-05 10:58 -35.39408 149.37989 28022 ft 447 kts 234°
2026-05-05 10:58 -35.41208 149.34890 28147 ft 447 kts 234°
2026-05-05 10:58 -35.43011 149.31788 28272 ft 447 kts 234°
2026-05-05 10:58 -35.44814 149.28681 28397 ft 447 kts 234°
2026-05-05 10:59 -35.46617 149.25568 28521 ft 447 kts 234°
2026-05-05 10:59 -35.48418 149.22452 28646 ft 448 kts 234°
2026-05-05 10:59 -35.50218 149.19336 28771 ft 448 kts 234°
2026-05-05 10:59 -35.52019 149.16223 28896 ft 448 kts 234°
2026-05-05 11:00 -35.53844 149.13061 29023 ft 448 kts 234°
2026-05-05 11:00 -35.55612 149.09990 29146 ft 448 kts 234°
2026-05-05 11:00 -35.57410 149.06866 29270 ft 448 kts 234°
2026-05-05 11:01 -35.60396 149.01674 29479 ft 448 kts 234°
2026-05-05 11:01 -35.62195 148.98543 29603 ft 448 kts 234°
2026-05-05 11:01 -35.63987 148.95421 29727 ft 448 kts 234°
2026-05-05 11:01 -35.65783 148.92285 29862 ft 447 kts 234°
2026-05-05 11:02 -35.67569 148.89161 29986 ft 447 kts 234°
2026-05-05 11:02 -35.71142 148.82922 30007 ft 446 kts 234°
2026-05-05 11:03 -35.74708 148.76685 30009 ft 445 kts 234°
2026-05-05 11:03 -35.78290 148.70405 30009 ft 445 kts 235°
2026-05-05 11:04 -35.81840 148.64159 30009 ft 445 kts 235°
2026-05-05 11:04 -35.85385 148.57909 30009 ft 445 kts 235°
2026-05-05 11:05 -35.88939 148.51653 30009 ft 445 kts 235°
2026-05-05 11:05 -35.92473 148.45394 30009 ft 445 kts 235°
2026-05-05 11:06 -35.96001 148.39117 30010 ft 445 kts 235°
2026-05-05 11:06 -35.99521 148.32845 30009 ft 444 kts 235°
2026-05-05 11:07 -36.03037 148.26567 30010 ft 445 kts 235°
2026-05-05 11:07 -36.06560 148.20287 30011 ft 445 kts 235°
2026-05-05 11:08 -36.10084 148.13996 30012 ft 445 kts 235°
2026-05-05 11:08 -36.13590 148.07696 30014 ft 445 kts 235°
2026-05-05 11:09 -36.17104 148.01396 30002 ft 432 kts 235°
2026-05-05 11:09 -36.18786 147.98397 30011 ft 418 kts 235°
2026-05-05 11:09 -36.20393 147.95525 30002 ft 413 kts 235°
2026-05-05 11:10 -36.23609 147.89748 30010 ft 419 kts 235°
2026-05-05 11:10 -36.26962 147.83717 30011 ft 430 kts 235°
2026-05-05 11:11 -36.30392 147.77536 30010 ft 440 kts 235°
2026-05-05 11:11 -36.33869 147.71250 30009 ft 443 kts 235°
2026-05-05 11:12 -36.37386 147.64888 30008 ft 444 kts 235°
2026-05-05 11:12 -36.40874 147.58568 30009 ft 444 kts 236°
2026-05-05 11:13 -36.44356 147.52229 30009 ft 444 kts 236°
2026-05-05 11:13 -36.47830 147.45887 30009 ft 444 kts 236°
2026-05-05 11:14 -36.51305 147.39543 30010 ft 444 kts 236°
2026-05-05 11:14 -36.54774 147.33193 30009 ft 444 kts 236°
2026-05-05 11:15 -36.58245 147.26840 30009 ft 444 kts 236°
2026-05-05 11:15 -36.61740 147.20448 30009 ft 444 kts 236°
2026-05-05 11:16 -36.65195 147.14075 30009 ft 444 kts 236°
2026-05-05 11:16 -36.68643 147.07699 30009 ft 444 kts 236°
2026-05-05 11:17 -36.72092 147.01322 30009 ft 444 kts 236°
2026-05-05 11:17 -36.75541 146.94941 29985 ft 442 kts 236°
2026-05-05 11:17 -36.77243 146.91791 29723 ft 434 kts 236°
2026-05-05 11:18 -36.78917 146.88694 29473 ft 428 kts 236°
2026-05-05 11:18 -36.80571 146.85628 29223 ft 425 kts 236°
2026-05-05 11:18 -36.82212 146.82580 28974 ft 422 kts 236°
2026-05-05 11:18 -36.83846 146.79542 28724 ft 420 kts 236°
2026-05-05 11:19 -36.85468 146.76519 28474 ft 418 kts 236°
2026-05-05 11:19 -36.87082 146.73511 28224 ft 416 kts 236°
2026-05-05 11:19 -36.88687 146.70517 27973 ft 414 kts 236°
2026-05-05 11:19 -36.90289 146.67529 27723 ft 412 kts 236°
2026-05-05 11:20 -36.91877 146.64561 27472 ft 410 kts 236°
2026-05-05 11:20 -36.93454 146.61613 27222 ft 408 kts 236°
2026-05-05 11:20 -36.94957 146.58796 26981 ft 406 kts 236°
2026-05-05 11:20 -36.96540 146.55832 26728 ft 404 kts 236°
2026-05-05 11:21 -36.98097 146.52919 26478 ft 402 kts 236°
2026-05-05 11:21 -36.99648 146.50017 26228 ft 400 kts 236°
2026-05-05 11:21 -37.01191 146.47121 25976 ft 398 kts 236°
2026-05-05 11:21 -37.02720 146.44245 25728 ft 396 kts 236°
2026-05-05 11:22 -37.04243 146.41382 25478 ft 394 kts 236°
2026-05-05 11:22 -37.05755 146.38542 25164 ft 389 kts 236°
2026-05-05 11:22 -37.07246 146.35737 24708 ft 386 kts 236°
2026-05-05 11:22 -37.08729 146.32943 24260 ft 383 kts 236°
2026-05-05 11:23 -37.10199 146.30174 23805 ft 381 kts 236°
2026-05-05 11:23 -37.11657 146.27417 23354 ft 379 kts 236°
2026-05-05 11:23 -37.13107 146.24670 22902 ft 376 kts 236°
2026-05-05 11:23 -37.14545 146.21949 22452 ft 374 kts 236°
2026-05-05 11:24 -37.15977 146.19236 22002 ft 371 kts 236°
2026-05-05 11:24 -37.17397 146.16541 21557 ft 369 kts 236°
2026-05-05 11:24 -37.18807 146.13866 21116 ft 367 kts 236°
2026-05-05 11:24 -37.20206 146.11213 20673 ft 364 kts 236°
2026-05-05 11:25 -37.21603 146.08566 20233 ft 362 kts 236°
2026-05-05 11:25 -37.22983 146.05943 19793 ft 359 kts 236°
2026-05-05 11:25 -37.24353 146.03335 19356 ft 357 kts 236°
2026-05-05 11:25 -37.25716 146.00740 18920 ft 354 kts 236°
2026-05-05 11:26 -37.27064 145.98166 18488 ft 352 kts 237°
2026-05-05 11:26 -37.28404 145.95605 18060 ft 350 kts 237°
2026-05-05 11:26 -37.29692 145.93143 17647 ft 347 kts 237°
2026-05-05 11:26 -37.31016 145.90616 17222 ft 345 kts 236°
2026-05-05 11:27 -37.31907 145.88920 16939 ft 344 kts 236°
2026-05-05 11:27 -37.33663 145.85584 16378 ft 341 kts 236°
2026-05-05 11:27 -37.34969 145.83108 15967 ft 338 kts 236°
2026-05-05 11:27 -37.36264 145.80649 15557 ft 336 kts 236°
2026-05-05 11:28 -37.37548 145.78201 15150 ft 334 kts 236°
2026-05-05 11:28 -37.38819 145.75774 14740 ft 332 kts 236°
2026-05-05 11:28 -37.40081 145.73358 14337 ft 329 kts 237°
2026-05-05 11:28 -37.41331 145.70955 13935 ft 327 kts 237°
2026-05-05 11:29 -37.42570 145.68577 13640 ft 322 kts 237°
2026-05-05 11:29 -37.43775 145.66262 13514 ft 311 kts 237°
2026-05-05 11:29 -37.44945 145.64025 13386 ft 301 kts 236°
2026-05-05 11:29 -37.46083 145.61855 13252 ft 293 kts 236°
2026-05-05 11:30 -37.47197 145.59739 13012 ft 288 kts 236°
2026-05-05 11:30 -37.48300 145.57646 12713 ft 286 kts 236°
2026-05-05 11:30 -37.49394 145.55564 12403 ft 284 kts 237°
2026-05-05 11:30 -37.50481 145.53492 12088 ft 283 kts 236°
2026-05-05 11:31 -37.51209 145.52100 11881 ft 282 kts 236°
2026-05-05 11:31 -37.52297 145.50019 11248 ft 292 kts 236°
2026-05-05 11:31 -37.53447 145.47825 10390 ft 308 kts 236°
2026-05-05 11:31 -37.54649 145.45533 9794 ft 314 kts 236°
2026-05-05 11:32 -37.55830 145.43279 9642 ft 303 kts 236°
2026-05-05 11:32 -37.56978 145.41079 9331 ft 299 kts 237°
2026-05-05 11:32 -37.58128 145.38866 8740 ft 302 kts 237°
2026-05-05 11:32 -37.59267 145.36681 8163 ft 294 kts 236°
2026-05-05 11:33 -37.60420 145.34468 7565 ft 287 kts 237°
2026-05-05 11:33 -37.61505 145.32381 6989 ft 282 kts 237°
2026-05-05 11:33 -37.62574 145.30327 6410 ft 278 kts 237°
2026-05-05 11:33 -37.63625 145.28309 5837 ft 274 kts 236°
2026-05-05 11:34 -37.64549 145.26233 5259 ft 270 kts 249°
2026-05-05 11:34 -37.64972 145.23944 4694 ft 265 kts 263°
2026-05-05 11:34 -37.65195 145.21677 4327 ft 254 kts 262°
2026-05-05 11:34 -37.65416 145.19528 4074 ft 240 kts 262°
2026-05-05 11:35 -37.65629 145.17470 3831 ft 234 kts 262°
2026-05-05 11:35 -37.65836 145.15448 3579 ft 230 kts 262°
2026-05-05 11:35 -37.66041 145.13459 3327 ft 227 kts 262°
2026-05-05 11:35 -37.66245 145.11482 3128 ft 222 kts 262°
2026-05-05 11:36 -37.66442 145.09572 2925 ft 217 kts 262°
2026-05-05 11:36 -37.66633 145.07707 2722 ft 212 kts 262°
2026-05-05 11:36 -37.66820 145.05878 2523 ft 209 kts 262°
2026-05-05 11:36 -37.67007 145.04064 2337 ft 208 kts 262°
2026-05-05 11:37 -37.67148 145.02196 2242 ft 208 kts 269°
2026-05-05 11:37 -37.67107 145.00372 2243 ft 208 kts 272°
2026-05-05 11:37 -37.67013 144.98545 2245 ft 209 kts 273°
2026-05-05 11:37 -37.66911 144.96747 2227 ft 202 kts 274°
2026-05-05 11:38 -37.66813 144.95037 2007 ft 188 kts 273°
2026-05-05 11:38 -37.66722 144.93448 1763 ft 173 kts 273°
2026-05-05 11:38 -37.66639 144.92007 1563 ft 152 kts 273°
2026-05-05 11:38 -37.66566 144.90730 1367 ft 142 kts 273°
2026-05-05 11:39 -37.66496 144.89502 1179 ft 139 kts 273°
2026-05-05 11:39 -37.66426 144.88294 996 ft 137 kts 273°
2026-05-05 11:39 -37.66350 144.87097 815 ft 137 kts 274°
2026-05-05 11:39 -37.66277 144.85931 629 ft 136 kts 272°
2026-05-05 11:40 -37.66221 144.84737 455 ft 136 kts 273°
2026-05-05 11:40 -37.66161 144.83666 416 ft 93 kts 274°
2026-05-05 11:40 -37.66134 144.83213 413 ft 26 kts 274°
2026-05-05 11:40 -37.66150 144.82982 408 ft 28 kts 252°
2026-05-05 11:41 -37.66221 144.82804 401 ft 16 kts 242°
2026-05-05 11:41 -37.66288 144.82684 394 ft 20 kts 210°
2026-05-05 11:41 -37.66422 144.82725 387 ft 24 kts 133°
2026-05-05 11:41 -37.66454 144.82902 387 ft 21 kts 93°
2026-05-05 11:42 -37.66464 144.83089 394 ft 21 kts 94°
2026-05-05 11:42 -37.66474 144.83267 397 ft 20 kts 94°
2026-05-05 11:42 -37.66484 144.83449 404 ft 22 kts 94°
2026-05-05 11:42 -37.66495 144.83647 405 ft 23 kts 94°
2026-05-05 11:43 -37.66501 144.83766 404 ft 19 kts 94°
2026-05-05 11:43 -37.66508 144.83887 404 ft 0 kts 94°
2026-05-05 11:43 -37.66511 144.83907 404 ft 7 kts 107°
2026-05-05 11:43 -37.66566 144.83942 402 ft 12 kts 176°
2026-05-05 11:44 -37.66674 144.83960 396 ft 19 kts 171°
2026-05-05 11:44 -37.66824 144.83989 391 ft 21 kts 171°
2026-05-05 11:44 -37.66940 144.84011 387 ft 19 kts 171°
2026-05-05 11:44 -37.67076 144.84037 383 ft 16 kts 171°
2026-05-05 11:45 -37.67154 144.84051 380 ft 12 kts 171°
2026-05-05 11:45 -37.67235 144.84067 378 ft 11 kts 170°
2026-05-05 11:45 -37.67321 144.84083 376 ft 14 kts 172°
2026-05-05 11:45 -37.67428 144.84101 373 ft 15 kts 171°
2026-05-05 11:46 -37.67517 144.84120 370 ft 15 kts 171°
2026-05-05 11:46 -37.67627 144.84141 367 ft 18 kts 172°
2026-05-05 11:46 -37.67768 144.84165 363 ft 22 kts 172°
2026-05-05 11:46 -37.67856 144.84210 360 ft 12 kts 109°
2026-05-05 11:47 -37.67854 144.84286 361 ft 11 kts 82°
2026-05-05 11:47 -37.67839 144.84417 363 ft 12 kts 81°
2026-05-05 11:47 -37.67830 144.84491 364 ft 13 kts 81°
2026-05-05 11:47 -37.67797 144.84594 367 ft 11 kts 35°
2026-05-05 11:48 -37.67736 144.84719 371 ft 10 kts 83°
2026-05-05 11:48 -37.67709 144.84766 373 ft 5 kts
2026-05-05 11:48 -37.67675 144.84761 374 ft 5 kts 351°
2026-05-05 11:49 -37.67646 144.84756 375 ft 1 kts 351°
2026-05-05 11:49 -37.67644 144.84755 376 ft 0 kts 351°
2026-05-05 11:49 -37.67640 144.84754 376 ft 2 kts 351°
2026-05-05 11:49 -37.67629 144.84752 376 ft 2 kts 352°
2026-05-05 11:50 -37.67625 144.84752 376 ft 0 kts 352°